TimeEDT,TemperatureF,Dew PointF,Humidity,Sea Level PressureIn,VisibilityMPH,Wind Direction,Wind SpeedMPH,Gust SpeedMPH,PrecipitationIn,Events,Conditions,WindDirDegrees,DateUTC
12:15 AM,56.1,44.6,65,29.91,10.0,WNW,11.5,21.9,N/A,,Clear,290,2013-03-17 04:15:00
12:35 AM,55.8,44.2,65,29.91,10.0,WNW,8.1,-,N/A,,Clear,290,2013-03-17 04:35:00
1:15 AM,55.2,44.2,67,29.92,10.0,WSW,3.5,-,N/A,,Scattered Clouds,250,2013-03-17 05:15:00
1:35 AM,55.4,43.9,65,29.91,10.0,West,4.6,-,N/A,,Mostly Cloudy,270,2013-03-17 05:35:00
2:15 AM,55.6,43.9,65,29.91,10.0,West,6.9,-,N/A,,Overcast,270,2013-03-17 06:15:00
2:35 AM,55.4,44.1,66,29.92,10.0,WNW,8.1,-,N/A,,Overcast,290,2013-03-17 06:35:00
2:55 AM,55.0,44.1,67,29.91,10.0,WNW,5.8,-,N/A,,Mostly Cloudy,300,2013-03-17 06:55:00
3:15 AM,55.4,44.1,66,29.92,10.0,West,8.1,-,N/A,,Overcast,270,2013-03-17 07:15:00
3:35 AM,55.0,44.1,67,29.92,10.0,West,9.2,-,N/A,,Overcast,280,2013-03-17 07:35:00
3:55 AM,55.4,44.1,66,29.92,10.0,West,4.6,-,N/A,,Overcast,260,2013-03-17 07:55:00
4:15 AM,55.4,44.1,66,29.92,10.0,WSW,3.5,-,N/A,,Overcast,240,2013-03-17 08:15:00
4:35 AM,55.0,44.1,67,29.92,10.0,West,4.6,-,N/A,,Overcast,270,2013-03-17 08:35:00
4:55 AM,54.5,44.2,68,29.92,10.0,WNW,4.6,-,N/A,,Overcast,290,2013-03-17 08:55:00
5:15 AM,54.5,44.6,69,29.91,10.0,Calm,Calm,-,N/A,,Overcast,0,2013-03-17 09:15:00
5:35 AM,53.8,44.4,71,29.92,10.0,Calm,Calm,-,N/A,,Overcast,0,2013-03-17 09:35:00
5:55 AM,54.1,44.1,69,29.92,10.0,Calm,Calm,-,N/A,,Overcast,0,2013-03-17 09:55:00
6:15 AM,53.6,44.2,71,29.93,10.0,Calm,Calm,-,N/A,,Overcast,0,2013-03-17 10:15:00
6:35 AM,53.6,44.6,72,29.94,10.0,NW,3.5,-,N/A,,Overcast,310,2013-03-17 10:35:00
6:55 AM,52.7,44.8,74,29.94,10.0,NNW,4.6,-,N/A,,Overcast,330,2013-03-17 10:55:00
7:15 AM,52.0,45.0,77,29.95,10.0,NW,4.6,-,N/A,,Overcast,320,2013-03-17 11:15:00
7:35 AM,51.8,45.0,77,29.95,10.0,Calm,Calm,-,N/A,,Overcast,0,2013-03-17 11:35:00
7:55 AM,50.9,45.0,80,29.96,10.0,Calm,Calm,-,N/A,,Overcast,0,2013-03-17 11:55:00
8:15 AM,52.2,44.8,76,29.97,10.0,NNW,5.8,-,N/A,,Overcast,330,2013-03-17 12:15:00
8:35 AM,50.7,45.3,82,29.97,10.0,Calm,Calm,-,N/A,,Overcast,0,2013-03-17 12:35:00
8:55 AM,51.1,45.5,81,29.98,10.0,Calm,Calm,-,N/A,,Overcast,0,2013-03-17 12:55:00
9:15 AM,50.9,45.5,82,29.98,10.0,NNE,4.6,-,N/A,,Overcast,30,2013-03-17 13:15:00
9:35 AM,50.9,45.5,82,29.98,10.0,Calm,Calm,-,N/A,,Overcast,0,2013-03-17 13:35:00
9:55 AM,50.9,45.7,82,29.98,10.0,NE,4.6,-,N/A,,Overcast,40,2013-03-17 13:55:00
10:15 AM,50.4,46.0,85,29.99,10.0,East,3.5,-,N/A,,Overcast,90,2013-03-17 14:15:00
10:35 AM,49.3,44.4,83,30.00,10.0,ENE,3.5,-,N/A,,Overcast,60,2013-03-17 14:35:00
11:15 AM,49.5,43.7,81,30.00,10.0,Calm,Calm,-,N/A,,Overcast,0,2013-03-17 15:15:00
11:35 AM,51.1,43.9,76,29.99,10.0,ENE,4.6,-,N/A,,Overcast,60,2013-03-17 15:35:00
11:55 AM,53.2,45.0,73,29.99,10.0,NNE,4.6,-,N/A,,Overcast,30,2013-03-17 15:55:00
12:15 PM,52.5,44.4,74,29.99,10.0,NE,4.6,-,N/A,,Overcast,40,2013-03-17 16:15:00
12:35 PM,52.3,43.9,73,29.99,10.0,ENE,5.8,-,N/A,,Overcast,70,2013-03-17 16:35:00
12:55 PM,52.3,44.2,74,29.99,10.0,NNE,3.5,-,N/A,,Overcast,20,2013-03-17 16:55:00
1:15 PM,52.5,44.4,74,29.98,10.0,NE,4.6,-,N/A,,Overcast,50,2013-03-17 17:15:00
1:35 PM,51.4,44.4,77,29.98,10.0,ENE,4.6,-,N/A,,Overcast,70,2013-03-17 17:35:00
1:55 PM,50.9,44.6,79,29.97,10.0,East,4.6,-,N/A,,Overcast,80,2013-03-17 17:55:00
2:15 PM,50.5,44.6,80,29.97,10.0,ENE,3.5,-,N/A,,Overcast,70,2013-03-17 18:15:00
2:35 PM,50.0,43.7,79,29.97,10.0,ENE,4.6,-,N/A,,Overcast,70,2013-03-17 18:35:00
2:55 PM,50.2,44.6,81,29.96,10.0,SE,5.8,-,N/A,,Overcast,130,2013-03-17 18:55:00
3:15 PM,50.4,45.0,82,29.95,10.0,SE,3.5,-,N/A,,Overcast,140,2013-03-17 19:15:00
3:35 PM,49.5,44.4,83,29.96,10.0,SSE,5.8,-,N/A,,Overcast,150,2013-03-17 19:35:00
4:15 PM,47.1,43.2,86,29.96,7.0,SSE,4.6,-,N/A,,Overcast,150,2013-03-17 20:15:00
4:35 PM,46.4,42.6,87,29.96,7.0,SE,4.6,-,N/A,,Overcast,140,2013-03-17 20:35:00
4:55 PM,45.9,42.6,88,29.96,7.0,ESE,4.6,-,N/A,,Overcast,110,2013-03-17 20:55:00
5:15 PM,45.7,42.3,88,29.96,5.0,ESE,3.5,-,N/A,,Overcast,120,2013-03-17 21:15:00
5:35 PM,45.5,42.3,88,29.97,5.0,East,4.6,-,N/A,,Overcast,80,2013-03-17 21:35:00
5:55 PM,45.0,41.9,89,29.97,5.0,East,5.8,-,N/A,,Overcast,100,2013-03-17 21:55:00
6:15 PM,45.0,41.9,89,29.97,5.0,ESE,5.8,-,N/A,,Overcast,110,2013-03-17 22:15:00
6:35 PM,45.0,41.9,89,29.97,5.0,Calm,Calm,-,N/A,,Overcast,0,2013-03-17 22:35:00
6:55 PM,45.0,41.9,89,29.97,5.0,ESE,4.6,-,N/A,,Overcast,120,2013-03-17 22:55:00
7:15 PM,44.8,41.9,90,29.98,5.0,ESE,3.5,-,N/A,,Overcast,120,2013-03-17 23:15:00
7:35 PM,44.8,41.9,90,29.98,5.0,East,4.6,-,N/A,,Overcast,90,2013-03-17 23:35:00
7:55 PM,43.0,39.9,89,29.99,7.0,SSE,3.5,-,N/A,,Overcast,150,2013-03-17 23:55:00
8:15 PM,41.4,39.2,92,30.00,3.0,SSE,3.5,-,N/A,,Overcast,150,2013-03-18 00:15:00
8:35 PM,40.3,38.3,93,30.00,1.0,SSE,3.5,-,N/A,,Overcast,160,2013-03-18 00:35:00
9:15 PM,38.7,37.0,94,30.04,0.2,SSE,5.8,-,N/A,Rain,Light Rain,150,2013-03-18 01:15:00
9:35 PM,37.9,36.5,95,30.04,0.2,South,3.5,-,N/A,Rain,Light Rain,170,2013-03-18 01:35:00
9:55 PM,37.8,36.5,95,30.05,0.2,Calm,Calm,-,N/A,Rain,Light Rain,0,2013-03-18 01:55:00
10:15 PM,37.2,35.8,95,30.06,0.2,SSE,4.6,-,N/A,Rain,Rain,150,2013-03-18 02:15:00
10:35 PM,36.7,35.6,96,30.06,0.2,SSE,3.5,-,N/A,,Drizzle,150,2013-03-18 02:35:00
10:55 PM,36.5,35.1,95,30.07,0.2,SSE,3.5,-,N/A,Rain,Light Rain,160,2013-03-18 02:55:00
11:15 PM,35.8,34.7,96,30.07,0.2,SSE,3.5,-,N/A,Rain,Heavy Rain,150,2013-03-18 03:15:00
11:35 PM,35.6,34.3,95,30.07,0.2,SE,3.5,-,N/A,,Drizzle,140,2013-03-18 03:35:00
11:55 PM,34.9,33.6,95,30.07,0.2,SSE,4.6,-,N/A,,Drizzle,150,2013-03-18 03:55:00